Regional Weather Roundup
Issued by NWS Albany, NY

Home | Current Version | Previous Version | Text Only | Print | Product List | Glossary On
Versions: 1 2 3 4 5 6 7 8 9 10 11 12 13 14 15 16 17 18 19 20 21 22 23 24 25 26 27 28 29 30 31 32 33 34 35 36 37 38 39 40 41 42 43 44 45 46 47 48 49 50
000
ASUS41 KALY 292210
RWRALY

NEW YORK STATE HOURLY WEATHER ROUNDUP
NATIONAL WEATHER SERVICE ALBANY NY
600 PM EDT FRI APR 29 2016

NOTE: "FAIR" INDICATES FEW OR NO CLOUDS BELOW 12,000 FEET WITH NO
SIGNIFICANT WEATHER AND/OR NO OBSTRUCTIONS TO VISIBILITY.

NYZ032-033-038>043-046>054-057>066-NYZ062>081-082-084-292300-
EAST


CITY           SKY/WX    TMP DP  RH WIND       PRES   REMARKS
ALBANY         CLOUDY    56  34  43 SW8       30.06S
GLENS FALLS    CLOUDY    60  35  39 SW9       30.03S
POUGHKEEPSIE   CLOUDY    58  30  34 SE6       30.05F
NEWBURGH       CLOUDY    55  34  44 SE9       30.06F
MONTGOMERY     CLOUDY    52  35  52 SW12      30.06R
WHITE PLAINS   CLOUDY    51  33  50 E8        30.07F
ISLIP          CLOUDY    50  32  50 SE12      30.09R
NEW YORK CITY  CLOUDY    53  40  61 NE10      30.08S
CENTRAL PARK   CLOUDY    52  35  52 VRB7      30.11R
$$

NYZ005>009-017-018-044>046-055-056-292300-
CENTRAL


CITY           SKY/WX    TMP DP  RH WIND       PRES   REMARKS
FULTON         CLOUDY    53  46  77 CALM      30.06S
SYRACUSE       CLOUDY    50  41  71 E8        30.06R
ROME           CLOUDY    50  42  74 S5        30.07S
ELMIRA         HVY RAIN  47  44  90 W3        30.05R VSB 3/4
BINGHAMTON     LGT RAIN  44  39  82 S6        30.03R
MONTICELLO     CLOUDY    46  37  71 SW5       30.07R
$$

NYZ026>034-041>043-087-292300-
NORTH


CITY           SKY/WX    TMP DP  RH WIND       PRES   REMARKS
WATERTOWN      CLOUDY    54  24  31 N9        30.05S
FORT DRUM      NOT AVBL
MASSENA        CLOUDY    54  20  26 E10       30.10S
SARANAC LAKE   CLOUDY    50  18  28 E12       30.02R
PLATTSBURGH    MOSUNNY   52  22  30 NE12      30.08S
$$

NYZ001>004-010>016-019>021-085-292300-
WEST


CITY           SKY/WX    TMP DP  RH WIND       PRES   REMARKS
NIAGARA FALLS  PTSUNNY   50  29  44 E8        30.06R
BUFFALO        CLOUDY    48  31  51 E6        30.06S
DUNKIRK        LGT RAIN  45  40  82 CALM      30.07S
JAMESTOWN      CLOUDY    41  37  87 N7        30.02F
WELLSVILLE     LGT RAIN  44  42  93 E3        30.04R FOG
ROCHESTER      LGT RAIN  48  34  58 E6        30.08R
PENN YAN       LGT RAIN  48  42  80 CALM      30.06R
$$

             KEY
       WCI = WIND CHILL INDEX
       VSB = VISIBILITY
       HX  = HEAT INDEX
$$



USA.gov is the U.S. government's official web portal to all federal, state and local government web resources and services.